Regional Weather Roundup
Issued by NWS

Home | Current Version | Previous Version | Text Only | Print | Product List | Glossary On
Versions: 1 2 3 4 5 6 7 8 9 10 11 12 13 14 15 16 17 18 19 20 21 22 23 24 25 26 27 28 29 30 31 32 33 34 35 36 37 38 39 40 41 42 43 44 45 46 47 48 49 50
980
ASUS42 KTBW 241917
RWRFL
FLORIDA REGIONAL WEATHER ROUNDUP
NATIONAL WEATHER SERVICE TAMPA BAY RUSKIN FL
300 PM EDT THU MAY 24 2018

NOTE: "FAIR" INDICATES FEW OR NO CLOUDS BELOW 12,000 FEET WITH NO
SIGNIFICANT WEATHER AND/OR OBSTRUCTIONS TO VISIBILITY.

FLZ001>010-012>015-112-114-115-242000-
PANHANDLE FLORIDA

CITY           SKY/WX    TMP DP  RH WIND       PRES   REMARKS
PENSACOLA      PTSUNNY   86  73  65 S13       30.04F
PENSACOLA NAS  FAIR      85  72  65 S13       30.04F
MILTON NAS     PTSUNNY   88  70  55 VRB5      30.03
CRESTVIEW      FAIR      88  67  49 VRB5      30.03F
DUKE FIELD     PTSUNNY   88  71  57 SW12      30.02F
VALPARAISO     LGT RAIN  82  74  77 S9        30.03F
MARY ESTHER    MOSUNNY   86  74  66 S13       30.03  THUNDER
TRI COUNTY     FAIR      87  73  62 S8        30.03F
PANAMA CITY    LGT RAIN  79  73  82 NE10      30.04F
TYNDALL AFB    FAIR      85  71  63 SW10      30.05F
APALACHICOLA   FAIR      85  68  56 S13       30.06F

STATION/POSITION SKY/WX   TEMP    WIND        PRES    WAVE   SWELL
                          AIR SEA DIR/SP/G            HT/PER HT/PER
                          (F)     (DEG/KT/KT) (MB)    (FT/S) (FT/S)
30.1N   87.6W              81     170/  6/  8 1017.6
29.2N   88.2W                 85  150/  6/  8 1018.0F   3/ 8   2/ 8
28.8N   86.0W              79 81  120/  6/  8 1017.9F   3/ 8   3/ 8
PANAMA CITY BEAC           80 83  190/ 10/ 11 1018.2F
TOWER C                    78     150/  6/  6 1018.3F

$$
FLZ011-016>038-118-127-128-134-139-239-242000-
NORTH FLORIDA

CITY           SKY/WX    TMP DP  RH WIND       PRES   REMARKS
MARIANNA       FAIR      88  73  61 W8        30.02F HX  95
TALLAHASSEE    PTSUNNY   89  68  49 S9        30.04F
PERRY          FAIR      85  71  62 CALM      30.06F
LIVE OAK       MOSUNNY   90  68  48 CALM      30.05F
CROSS CITY     CLOUDY    89  70  53 W6        30.04F
LAKE CITY      FAIR      88  64  45 SW5       30.05F
GAINESVILLE    PTSUNNY   89  69  51 CALM      30.06F
WILLISTON      SUNNY     91  72  52 CALM      30.04F HX  98
PALATKA        PTSUNNY   86  68  54 CALM      30.05F
MAYPORT NAS    PTSUNNY   81  73  76 SE13      30.06F
JACKSONVILLE   PTSUNNY   86  74  67 E12       30.04F
JAX NAS        TSTM      82  71  69 E25G31    30.06F
JAX CECIL      PTSUNNY   88  72  58 S7        30.05F
FERNANDINA BEA FAIR      82  72  71 SE8       30.05F
ST AUGUSTINE   FAIR      83  74  74 SE14      30.07F
PALM COAST     SUNNY     84  68  58 E13       30.06F

STATION/POSITION SKY/WX   TEMP    WIND        PRES    WAVE   SWELL
                          AIR SEA DIR/SP/G            HT/PER HT/PER
                          (F)     (DEG/KT/KT) (MB)    (FT/S) (FT/S)
SHELL POINT                81     160/  7/  9 1018.3
KEATON BEACH               82     270/  7/  8 1018.0F
CEDAR KEY                  83     250/  4/  5 1017.7F
FERNANDINA                 82 80  120/  5/  9 1018.8F
30.7N   81.3W                 78                N/A     2/ 8
MAYPORT                    80 80  130/ 10/ 13 1018.5F
31.4N   80.9W              77 78  160/ 10/ 12 1017.7F   2/ 8   2/ 8
ST AUGUSTINE               77 81  130/ 12/ 14 1018.4F

$$
FLZ040-043>046-052-053-057-058-063-144-242000-
INTERIOR CENTRAL FLORIDA

CITY           SKY/WX    TMP DP  RH WIND       PRES   REMARKS
OCALA          PTSUNNY   89  69  51 VRB5      30.05F
LEESBURG       FAIR      87  71  58 S6        30.06F
SANFORD        FAIR      89  68  49 E14       30.05F
ORLANDO EXEC   FAIR      90  67  46 E5        30.05F
ORLANDO INTL   PTSUNNY   89  67  47 NE10      30.05F
KISSIMMEE      FAIR      90  67  46 E7        30.06F
WINTER HAVEN   PTSUNNY   90  67  46 MISG      30.06F
LAKELAND       PTSUNNY   88  66  48 E7        30.05F
BARTOW         MOSUNNY   90  64  43 NE9       30.05F
SEBRING        FAIR      88  67  51 E10       30.05F
OKEECHOBEE     PTSUNNY   77  72  83 SE5       30.08S

$$
FLZ041-047-054-059-064-141-147-242000-
EAST CENTRAL FLORIDA

CITY           SKY/WX    TMP DP  RH WIND       PRES   REMARKS
ORMOND BEACH   MOSUNNY   82  70  65 E12G17    30.07F
DAYTONA BEACH  FAIR      85  70  60 E9        30.07F
DELAND         PTSUNNY   88  70  55 E15       30.05F
NEW SMYRNA BEA MOSUNNY   84  72  65 E12       30.09F
JFK SPACE CTR  FAIR      85  67  54 E12       30.07F
TITUSVILLE     PTSUNNY   88  72  58 SE9       30.08F
CAPE CANAVERAL FAIR      84  72  67 SE10      30.07F
PATRICK AFB    FAIR      83  74  74 E10       30.08F
MELBOURNE      FAIR      85  72  65 E14       30.07F
VERO BEACH     FAIR      81  72  74 E8        30.08S
FT PIERCE      PTSUNNY   82  74  76 SE14      30.07F
STUART         PTSUNNY   84  73  70 E9        30.09F

STATION/POSITION SKY/WX   TEMP    WIND        PRES    WAVE   SWELL
                          AIR SEA DIR/SP/G            HT/PER HT/PER
                          (F)     (DEG/KT/KT) (MB)    (FT/S) (FT/S)
28.5N   80.2W              80 79   80/  4/  8 1018.9F   2/ 8   2/ 8
28.9N   78.5W              79 80  120/  8/ 10 1019.8F   3/ 8   3/ 8
TRIDENT PIER               83 80   80/  7/ 10 1020.2F
28.4N   80.5W                 81                N/A     2/ 8
27.5N   80.2W                 79                N/A     2/ 8

$$
FLZ050-056-061-142-242-148-248-149-249-151-251-155-255-
160-260-242000-
WEST CENTRAL FLORIDA

CITY           SKY/WX    TMP DP  RH WIND       PRES   REMARKS
CRYSTAL RIVER  CLOUDY    86  72  62 W5        30.05F
INVERNESS      FAIR      90  72  55 E7        30.05F HX  96
BROOKSVILLE    FAIR      90  70  51 CALM      30.05F HX  95
CLEARWATER AIR FAIR      88  68  51 SE7       30.04F
ST PETE CLEARW FAIR      88  73  61 E7        30.04F HX  95
TAMPA INTL     PTSUNNY   85  71  63 SW7       30.04F
TAMPA EXEC     FAIR      90  70  51 CALM      30.05F HX  95
MACDILL AFB    FAIR      88  70  54 SE8       30.03F
PETER O KNIGHT PTSUNNY   86  70  58 S3        30.04F
ST PETERSBURG  FAIR      88  72  58 CALM      30.03F
SARASOTA       FAIR      85  75  72 W13       30.02F
VENICE         FAIR      86  77  74 W10       30.04F HX  97

STATION/POSITION SKY/WX   TEMP    WIND        PRES    WAVE   SWELL
                          AIR SEA DIR/SP/G            HT/PER HT/PER
                          (F)     (DEG/KT/KT) (MB)    (FT/S) (FT/S)
27.3N   84.2W                 80                N/A     2/ 8
CLEARWATER BEACH           81 83  290/  8/  9 1017.7F
MIDDLE TAMPA BAY           82      10/  8/  9 1017.5F
VENICE                     81 80  280/ 10/ 11 1017.1F

$$
FLZ066-069-070-075>078-162-262-165-265-242000-
SOUTHWEST FLORIDA AND KEYS

CITY           SKY/WX    TMP DP  RH WIND       PRES   REMARKS
PUNTA GORDA    PTSUNNY   89  66  46 SE9       30.04F
FT MYERS       TSTM      75  74  96 NE12      30.04R VSB 3/4
SOUTHWEST INTL FAIR      85  72  65 N9        30.04S
NAPLES         CLOUDY    83  75  77 SW12      30.03F
MARCO ISLAND   PTSUNNY   84  73  69 E18G24    30.05F
IMMOKALEE      FAIR      81  70  69 SE8G15    30.06F
MARATHON       FAIR      84  74  71 SE7       30.02F
KEY WEST NAS   PTSUNNY   82  73  74 SE9       30.02F
KEY WEST INTL  FAIR      83  76  79 SE8       30.03F

STATION/POSITION SKY/WX   TEMP    WIND        PRES    WAVE   SWELL
                          AIR SEA DIR/SP/G            HT/PER HT/PER
                          (F)     (DEG/KT/KT) (MB)    (FT/S) (FT/S)
NAPLES                     82 81              1016.9F
26.0N   85.6W              81 83   90/ 14/ 16 1016.9F   4/ 7   2/ 7
DRY TORTUGAS               79      80/ 11/ 11 1016.7F
SAND KEY                   80                 1016.7F
SOMBRERO KEY               81      90/  8/  9 1016.1F
LONG KEY                   80 80  100/ 11/ 12 1016.5F
MOLASSES REEF              80 80   80/  5/  7 1017.2F

$$
FLZ067-068-071>074-168-172>174-242000-
SOUTHEAST FLORIDA

CITY           SKY/WX    TMP DP  RH WIND       PRES   REMARKS
W PALM BEACH   PTSUNNY   81  73  76 E12       30.07F
BOCA RATON     MOSUNNY   82  73  74 SE12      30.06F
FT LAUDER-EXEC PTSUNNY   83  74  74 E14       30.05F
FT LAUDERDALE  NOT AVBL
POMPANO BEACH  FAIR      83  73  72 E13       30.05F
PEMBROKE PINES FAIR      85  72  65 E14       30.06F
OPA LOCKA      FAIR      84  72  67 SE12      30.05F
MIAMI          PTSUNNY   84  73  69 E14       30.04F
WEST KENDALL   PTSUNNY   85  72  65 SE16      30.04F
HOMESTEAD      FAIR      83  74  73 E13       30.03F

STATION/POSITION SKY/WX   TEMP    WIND        PRES    WAVE   SWELL
                          AIR SEA DIR/SP/G            HT/PER HT/PER
                          (F)     (DEG/KT/KT) (MB)    (FT/S) (FT/S)
PORT EVERGLADES            83      90/  5/  8 1017.7
VIRGINIA KEY               81 82   80/  9/ 11 1017.1F
LAKE WORTH                 80 80  130/  8/  9 1019.2F
FOWEY



USA.gov is the U.S. government's official web portal to all federal, state and local government web resources and services.